Presure
182 189 193 185 178 193 226 194 261 268 318 337 303 286 270 256 252 248 253 253 267 277 277 266 234 243 175 218 239 239 235 134 219 177 178 138 143 279 175 188 236 226 205 205 206
181 195 187 179 206 217 200 198 247 240 271 328 331 305 281 268 254 246 246 247 262 262 194 278 259 246 242 235 236 232 233 225 219 142 130 129 131 290 214 230 241 230 218 199 172
180 181 178 191 200 196 214 169 208 264 200 221 353 327 305 279 266 252 246 245 248 256 260 251 241 260 252 246 241 234 230 228 222 211 236 137 247 138 287 197 229 241 227 209 192
146 171 188 182 192 187 159 192 191 173 193 207 291 355 347 301 277 263 254 249 239 247 250 244 241 243 271 269 258 250 158 161 233 219 212 194 145 141 273 300 271 232 242 225 216
182 183 174 169 185 189 175 194 191 199 215 205 198 318 339 324 293 274 254 252 244 242 241 244 249 244 239 225 220 148 150 254 244 233 221 178 205 243 245 259 275 297 282 230 218
160 197 158 179 185 177 164 186 157 191 211 206 203 249 322 332 315 284 268 252 249 245 237 243 240 254 181 206 135 139 141 244 260 248 238 218 216 221 235 243 249 218 273 287 231
159 173 190 186 164 137 188 199 181 186 196 182 226 194 278 358 341 308 277 275 258 248 242 242 235 226 249 251 251 247 253 220 255 265 260 246 220 209 220 224 239 245 255 265 272
164 141 170 157 195 169 173 160 142 202 189 206 178 194 198 186 367 345 312 274 266 257 247 239 239 244 229 244 249 250 249 256 261 256 283 258 274 255 234 209 217 226 134 246 257
145 145 170 149 172 169 174 190 183 199 189 191 199 206 164 234 204 316 340 311 278 265 254 248 243 244 245 228 237 250 238 193 255 277 296 270 262 237 205 293 293 243 198 134 197
165 174 174 132 192 167 171 151 190 168 193 172 194 152 184 204 205 212 257 332 313 282 265 255 251 250 240 245 232 233 248 243 241 265 252 259 275 237 276 278 264 265 280 285 250
181 127 176 142 182 162 164 198 166 170 190 196 200 207 176 171 184 207 230 201 333 312 277 251 249 248 244 246 239 227 228 242 242 238 244 261 261 250 252 265 262 268 268 269 268
144 180 145 172 172 159 157 164 189 158 177 163 168 196 191 180 205 206 204 220 219 313 326 296 258 249 242 240 244 243 228 230 237 233 238 244 244 257 262 264 266 278 271 270 267
171 131 140 154 171 157 173 170 153 195 174 179 156 167 188 195 159 204 192 193 211 255 274 347 309 269 253 249 241 241 242 238 234 234 244 244 243 239 244 260 274 261 278 277 270
177 161 173 137 158 139 164 192 144 151 167 221 168 201 205 168 182 190 221 202 193 146 173 277 291 324 298 258 249 249 240 240 239 241 234 247 246 256 245 258 291 269 257 285 287
164 165 176 176 154 180 157 185 177 170 202 197 170 160 165 192 172 199 183 154 197 205 226 161 257 270 323 296 274 256 249 247 246 246 237 241 248 254 156 157 285 277 258 297 271
139 149 120 137 162 183 174 169 187 203 152 188 163 170 168 149 177 197 178 185 180 181 193 142 218 265 264 288 298 277 261 250 246 240 237 241 188 215 250 263 276 264 263 272 259
128 160 165 174 164 177 178 186 167 176 173 167 187 183 164 156 168 154 195 189 182 159 219 216 133 259 263 259 281 295 267 263 255 235 237 242 239 245 253 257 273 256 265 264 256
165 138 154 157 145 175 168 182 180 173 196 153 199 168 168 171 164 154 165 170 206 156 215 187 190 133 267 261 264 315 284 263 265 253 241 243 246 243 259 254 263 251 235 250 332
171 163 142 162 121 167 158 148 196 188 193 197 196 182 197 208 164 202 174 198 193 149 124 196 127 246 251 264 249 272 308 270 255 255 256 251 253 240 259 237 259 243 244 240 329
156 166 157 155 129 152 143 172 174 178 158 157 197 192 186 195 206 166 177 168 205 160 218 205 178 218 231 264 264 281 285 296 257 250 243 244 252 254 254 250 255 223 239 281 305
150 151 149 161 175 126 181 179 175 171 148 174 187 198 177 209 187 183 176 204 209 191 184 193 169 170 216 263 265 263 276 294 277 257 248 244 246 257 248 245 251 229 228 263 279
124 168 145 140 135 138 174 167 197 153 177 203 175 135 175 204 195 203 205 190 162 208 196 195 170 214 209 270 263 265 270 301 292 262 262 253 245 255 244 239 236 241 224 265 284
137 170 152 179 162 174 178 185 195 197 169 184 189 175 135 205 181 168 197 175 189 202 213 213 214 173 251 262 268 260 269 303 294 272 256 259 264 247 239 233 234 230 214 274 273
147 159 161 174 182 156 174 185 177 165 166 176 197 205 179 196 188 188 184 194 176 195 208 182 218 216 248 258 275 267 264 286 292 271 259 252 247 244 242 212 234 233 207 241 268
151 166 183 157 154 187 166 156 188 196 159 193 196 201 184 195 202 189 194 172 174 201 209 171 187 217 211 259 267 261 272 280 292 280 257 247 249 241 246 222 229 236 219 213 275
193 166 144 167 151 196 160 174 186 203 142 200 196 177 165 175 204 184 173 166 187 193 173 212 226 231 224 267 268 263 267 288 300 279 263 243 244 243 239 241 232 231 202 208 275
189 160 195 155 177 192 184 150 202 190 180 197 190 171 206 193 202 185 201 191 196 199 209 185 234 236 263 288 270 274 282 297 295 282 257 251 239 240 233 233 232 216 236 204 249
Wind_Speed
58 40 65 45 28 54 59 49 58 59 48 23 21 26 28 27 27 24 23 25 24 28 34 37 39 40 39 39 39 38 39 40 40 37 34 41 44 51 42 52 74 76 63 60 61
61 53 53 48 58 58 58 61 69 53 59 45 22 23 24 28 25 26 24 22 21 23 33 32 35 38 38 38 38 39 39 41 40 43 40 38 40 46 52 68 72 73 74 64 58
42 58 53 65 62 65 60 30 65 67 53 52 30 20 23 25 26 26 24 20 20 18 20 26 30 34 37 39 40 40 41 41 41 41 29 43 24 43 54 51 69 75 79 72 64
26 61 58 67 56 66 42 67 66 33 53 57 66 29 20 23 27 27 27 23 23 20 19 24 28 29 32 36 38 39 44 44 42 41 41 36 41 44 30 43 70 73 79 82 75
56 56 66 51 53 66 42 70 66 69 56 63 56 54 26 18 23 25 26 27 26 24 23 23 22 28 31 34 33 44 44 43 42 43 43 43 37 34 36 37 40 48 68 83 80
51 47 41 63 58 45 40 71 23 73 61 71 61 64 45 23 18 22 23 26 28 29 27 27 25 23 34 33 42 43 44 38 43 42 43 45 44 46 41 41 43 43 48 52 81
60 58 49 51 58 33 62 58 69 73 72 54 72 57 66 34 19 20 21 25 30 30 30 30 29 29 25 24 26 29 31 38 37 42 45 44 48 52 50 50 47 48 50 52 56
49 42 53 54 51 66 69 28 30 59 71 57 30 67 63 49 26 13 22 22 25 27 30 34 33 32 30 28 24 25 27 28 33 35 39 44 47 51 53 56 56 55 43 56 58
37 34 56 39 61 65 64 54 57 55 71 71 63 53 20 80 63 35 19 22 26 29 28 34 37 34 32 33 30 25 29 35 27 27 27 36 41 46 49 44 48 57 59 44 55
58 53 50 34 57 54 60 34 58 66 53 43 66 30 56 65 66 60 73 27 23 29 31 31 35 37 33 33 34 32 27 28 30 23 32 31 31 40 39 42 48 51 50 53 54
47 33 49 37 53 64 68 51 63 72 61 53 52 63 55 43 38 60 82 60 29 25 29 31 35 36 36 38 36 38 36 34 31 33 34 27 31 41 43 43 47 50 53 56 59
45 53 42 49 52 47 55 54 51 46 67 50 39 51 67 37 57 55 57 72 61 39 28 32 37 38 37 38 40 39 43 41 38 37 38 37 39 38 43 44 47 50 54 58 59
46 39 47 50 54 48 57 61 55 55 57 60 39 61 66 57 34 50 65 61 62 77 47 27 31 40 41 42 41 41 42 43 44 44 42 40 41 42 45 47 49 52 54 60 61
47 52 50 33 58 39 61 61 38 43 68 62 71 48 53 46 59 65 67 59 54 23 32 50 45 31 35 44 43 45 42 44 45 47 47 44 43 44 43 46 47 51 56 54 59
47 54 57 56 59 57 61 57 60 67 51 47 66 49 60 59 64 52 69 30 62 53 80 30 75 50 34 37 44 47 46 46 46 46 49 49 47 49 49 48 51 47 54 48 60
40 57 35 39 52 62 59 61 60 60 54 60 52 67 66 30 76 60 68 55 57 59 60 22 76 54 49 46 36 41 46 45 44 44 49 52 45 47 47 49 51 50 48 48 57
33 54 53 55 58 58 57 61 64 63 55 70 56 57 70 37 67 53 62 69 63 44 83 79 29 68 53 49 51 39 38 40 43 44 49 52 48 51 52 48 49 49 48 48 52
51 48 47 59 45 57 56 58 59 59 56 32 53 72 71 61 63 39 48 65 80 38 86 66 66 30 58 55 51 38 39 39 36 41 47 52 49 49 49 45 48 47 46 50 40
51 52 58 56 41 55 64 58 69 58 55 53 57 55 53 73 60 61 71 65 72 43 37 69 31 70 80 58 53 55 35 37 38 40 41 46 49 48 48 40 44 43 44 48 29
51 54 60 58 42 65 57 55 57 57 69 67 63 57 50 50 63 39 66 58 74 57 93 71 62 99 97 63 61 56 44 33 39 39 38 37 44 47 42 40 43 37 40 33 29
67 61 57 59 55 39 58 60 53 59 61 59 57 64 70 73 53 63 59 75 84 68 76 70 57 60 98 69 60 57 51 37 34 39 42 30 41 42 37 36 41 35 36 36 38
41 60 68 56 47 55 57 55 80 74 52 77 59 38 73 65 72 75 82 64 53 83 66 73 57 96 84 62 61 59 54 41 32 36 41 39 37 38 35 33 37 37 33 37 30
54 65 73 68 64 67 56 63 80 78 61 58 55 70 44 78 57 78 73 81 79 76 89 95 103 63 83 70 59 60 55 43 34 32 37 33 36 30 30 29 34 31 32 32 22
60 73 71 66 73 64 60 70 76 78 64 56 71 81 72 67 59 81 79 80 78 91 89 72 110 95 88 74 62 57 57 45 36 30 28 38 31 30 29 29 33 31 33 30 31
75 59 71 77 69 76 61 73 75 84 79 76 72 83 61 64 80 65 80 81 82 97 96 64 79 94 88 73 66 61 60 52 36 31 25 36 29 31 32 28 29 32 27 30 25
87 65 78 67 73 88 79 57 86 96 54 85 75 62 77 76 96 61 77 80 74 83 75 99 112 109 101 69 65 58 61 50 38 33 26 32 32 28 28 27 27 29 29 29 21
86 69 90 78 67 79 68 53 101 79 66 88 72 67 95 64 98 81 98 74 97 93 107 83 111 107 75 69 64 60 59 48 37 32 30 31 32 28 27 25 26 21 26 27 19
Wind_Direction
10 8 5 5 348 13 18 15 23 23 12 336 292 272 272 272 278 280 287 282 284 270 259 256 256 257 258 258 261 260 260 252 257 260 262 261 263 225 244 238 228 233 237 231 227
1 9 2 0 16 17 13 14 22 18 22 9 325 286 270 271 274 278 281 285 292 281 274 261 257 258 259 259 261 260 259 255 254 252 253 256 259 237 236 232 229 231 236 236 239
357 1 3 360 3 3 14 0 11 19 14 14 356 311 275 272 273 282 281 280 289 290 286 271 265 264 262 260 261 262 261 258 254 251 261 253 260 258 236 242 233 230 233 237 237
318 356 359 357 1 0 339 4 7 11 19 14 19 352 319 276 266 277 285 285 281 286 284 271 269 268 270 265 262 262 254 255 258 250 249 253 254 257 245 242 237 234 233 236 239
354 358 353 358 5 355 358 356 2 1 21 8 12 15 350 301 278 263 285 286 289 287 282 280 281 274 268 261 262 255 257 262 256 253 248 251 250 249 243 243 243 244 242 235 239
356 5 340 351 353 353 345 355 320 357 18 2 13 16 10 350 303 273 269 286 288 288 288 289 283 297 267 267 259 258 258 265 261 257 252 248 247 246 246 244 242 246 243 246 239
354 345 357 352 356 325 355 2 352 353 354 6 24 7 21 0 333 277 281 273 276 283 287 290 287 276 297 293 281 272 272 264 266 264 262 256 250 251 249 246 244 243 243 244 244
341 334 350 356 359 351 350 341 312 3 352 3 19 2 2 7 7 317 273 282 279 282 286 291 290 293 283 296 294 281 272 274 273 267 265 263 261 260 253 251 250 247 248 243 244
352 346 344 343 344 345 346 355 357 1 350 352 356 10 349 25 11 7 330 285 284 288 286 285 292 293 295 285 289 291 273 265 273 281 281 270 265 257 257 265 264 256 250 250 246
331 343 348 322 355 352 346 346 352 349 354 355 350 314 352 4 14 12 22 345 301 286 287 289 289 291 290 292 285 285 289 276 273 289 268 271 281 269 270 266 261 260 260 259 256
344 312 341 342 344 342 341 357 344 343 345 350 352 6 360 4 6 11 22 4 344 319 282 302 297 293 296 293 289 285 283 284 278 271 271 282 277 266 264 269 266 265 263 260 258
340 341 330 342 337 342 346 337 348 339 341 347 336 353 352 350 10 355 11 13 6 2 316 285 284 292 294 294 292 291 284 285 284 276 279 278 275 283 281 276 273 269 266 264 262
328 322 326 335 337 336 335 334 345 349 345 345 342 339 340 341 318 354 343 346 6 15 8 315 300 279 284 283 289 292 290 287 285 285 288 283 278 277 281 285 279 275 274 270 266
335 328 333 334 332 333 335 345 325 341 335 2 338 352 358 347 346 341 11 349 351 303 346 6 2 310 289 277 282 280 285 286 287 286 285 287 285 289 280 285 300 274 273 275 271
320 326 333 334 330 337 331 339 331 328 349 347 338 342 347 335 347 346 344 311 357 349 6 321 2 355 323 295 280 278 282 284 284 284 287 290 294 297 265 266 304 290 275 296 275
318 324 319 330 328 339 335 328 337 344 341 337 336 334 336 312 336 342 341 331 347 342 341 286 355 352 350 343 301 283 279 282 283 282 286 290 279 292 302 303 304 293 291 292 280
311 320 322 333 327 337 337 338 327 327 336 326 326 341 333 331 339 334 342 333 344 330 357 352 284 355 346 344 343 296 284 280 280 283 286 289 296 299 303 302 310 294 306 305 292
316 321 317 321 329 338 333 338 335 327 342 323 348 326 328 340 339 311 335 328 354 326 355 339 342 282 344 341 342 322 293 285 283 273 279 287 291 295 304 310 311 302 295 299 331
317 313 322 316 316 322 321 328 343 342 339 343 347 345 342 349 316 354 332 348 347 307 297 331 297 343 348 338 335 337 311 284 282 284 280 285 293 296 301 302 307 298 303 301 344
309 304 308 317 305 317 318 326 336 332 322 324 343 339 328 338 355 326 324 321 347 328 351 342 335 349 347 336 334 334 329 298 280 282 285 294 293 297 299 308 311 295 308 326 353
310 314 315 307 324 300 331 331 318 317 326 317 339 345 333 349 326 317 335 343 349 327 327 333 329 326 346 336 332 329 330 312 284 276 280 287 291 295 300 308 315 304 305 320 343
302 306 314 314 317 317 315 309 337 321 320 341 314 298 320 348 334 345 347 322 322 345 332 330 329 344 335 329 328 326 325 310 294 281 279 283 288 291 300 308 307 321 312 329 340
303 303 299 314 306 315 314 326 332 335 310 326 329 316 300 345 313 316 342 322 336 338 344 344 340 333 333 330 326 321 322 311 302 280 280 285 281 285 293 301 304 310 297 337 346
296 308 298 312 313 305 309 325 312 316 320 312 339 338 324 334 324 328 326 331 317 333 338 326 338 339 332 329 324 318 318 314 300 281 282 279 281 292 295 281 308 316 289 318 340
290 297 310 300 299 318 295 300 325 330 304 325 325 329 326 334 337 327 336 314 314 331 337 328 331 335 331 327 323 321 315 312 298 282 269 276 276 287 291 287 303 312 308 303 337
300 295 296 299 305 321 292 302 319 326 311 332 333 302 316 310 339 317 309 316 316 322 321 331 331 332 332 320 320 318 310 309 290 279 264 267 274 279 286 292 297 304 280 295 331
300 295 305 301 304 315 311 308 322 315 315 329 312 316 334 329 333 322 332 322 325 325 329 315 330 330 326 313 317 312 307 303 284 272 261 257 267 275 279 287 291 284 303 288 312